When you browse on this site, cookies collect data to enhance your experience and personalize the content and advertising you see.
Visit our Privacy Policy to learn more. By continuing to use the site, you agree to this use of cookies and data.
EN

Hourly Weather Vivsya

Today, 14 August, Friday

Time Temperature Precipitation Wind Pressure Humidity
00:00 +15°C° 0 mm 1 mps 734 mmHg 76%
01:00 +13°C° 0 mm 0 mps 734 mmHg 78%
02:00 +13°C° 0 mm 0 mps 734 mmHg 80%
03:00 +13°C° 0 mm 0 mps 734 mmHg 80%
04:00 +13°C° 0 mm 0 mps 734 mmHg 81%
05:00 +12°C° 0 mm 0 mps 734 mmHg 82%
06:00 +14°C° 0 mm 0 mps 734 mmHg 77%
07:00 +18°C° 0 mm 1 mps 734 mmHg 73%
08:00 +19°C° 0 mm 1 mps 734 mmHg 69%
09:00 +20°C° 0 mm 1 mps 735 mmHg 64%
10:00 +21°C° 0 mm 2 mps 735 mmHg 60%
11:00 +23°C° 0 mm 2 mps 735 mmHg 56%
12:00 +23°C° 0 mm 2 mps 735 mmHg 54%
13:00 +24°C° 0 mm 2 mps 734 mmHg 53%
14:00 +24°C° 0 mm 2 mps 734 mmHg 52%
15:00 +24°C° 0 mm 2 mps 734 mmHg 54%
16:00 +23°C° 0 mm 2 mps 734 mmHg 57%
17:00 +23°C° 0 mm 2 mps 734 mmHg 60%
18:00 +20°C° 0 mm 2 mps 734 mmHg 65%
19:00 +19°C° 0 mm 3 mps 734 mmHg 71%
20:00 +17°C° 0 mm 3 mps 734 mmHg 77%
21:00 +16°C° 0 mm 3 mps 734 mmHg 77%
22:00 +14°C° 0 mm 3 mps 734 mmHg 77%
23:00 +14°C° 0 mm 3 mps 734 mmHg 77%

Tomorrow, 15 August, Saturday

Time Temperature Precipitation Wind Pressure Humidity
00:00 +13°C° 0 mm 3 mps 734 mmHg 76%
01:00 +13°C° 0 mm 3 mps 734 mmHg 75%
02:00 +13°C° 0 mm 3 mps 734 mmHg 73%
03:00 +13°C° 0 mm 3 mps 734 mmHg 73%
04:00 +13°C° 0 mm 4 mps 734 mmHg 72%
05:00 +12°C° 0 mm 4 mps 734 mmHg 72%
06:00 +13°C° 0 mm 4 mps 734 mmHg 70%
07:00 +14°C° 0 mm 4 mps 734 mmHg 69%
08:00 +16°C° 0 mm 5 mps 734 mmHg 68%
09:00 +17°C° 0 mm 5 mps 734 mmHg 65%
10:00 +19°C° 0 mm 5 mps 734 mmHg 62%
11:00 +21°C° 0 mm 5 mps 734 mmHg 60%
12:00 +22°C° 0 mm 5 mps 734 mmHg 59%
13:00 +22°C° 0 mm 5 mps 734 mmHg 58%
14:00 +23°C° 0 mm 5 mps 734 mmHg 57%
15:00 +23°C° 0 mm 5 mps 733 mmHg 59%
16:00 +23°C° 0 mm 5 mps 733 mmHg 60%
17:00 +22°C° 0 mm 4 mps 733 mmHg 62%
18:00 +21°C° 0 mm 5 mps 733 mmHg 63%
19:00 +20°C° 0 mm 5 mps 733 mmHg 64%
20:00 +19°C° 0 mm 5 mps 733 mmHg 66%
21:00 +19°C° 0 mm 5 mps 733 mmHg 60%
22:00 +19°C° 0 mm 5 mps 733 mmHg 55%
23:00 +19°C° 0 mm 5 mps 733 mmHg 50%

Day after tomorrow, 16 August, Sunday

Time Temperature Precipitation Wind Pressure Humidity
00:00 +19°C° 0 mm 5 mps 733 mmHg 51%
01:00 +17°C° 0 mm 5 mps 733 mmHg 52%
02:00 +16°C° 0 mm 5 mps 733 mmHg 53%
03:00 +17°C° 0 mm 4 mps 733 mmHg 54%
04:00 +15°C° 0 mm 4 mps 733 mmHg 56%
05:00 +15°C° 0 mm 4 mps 733 mmHg 58%
06:00 +17°C° 0 mm 4 mps 733 mmHg 60%
07:00 +17°C° 0 mm 5 mps 733 mmHg 62%
08:00 +17°C° 0 mm 5 mps 734 mmHg 64%
09:00 +20°C° 0 mm 5 mps 734 mmHg 63%
10:00 +22°C° 0 mm 5 mps 734 mmHg 61%
11:00 +23°C° 0 mm 5 mps 734 mmHg 60%
12:00 +25°C° 0 mm 5 mps 734 mmHg 57%
13:00 +26°C° 0 mm 5 mps 734 mmHg 54%
14:00 +27°C° 0 mm 5 mps 734 mmHg 51%
15:00 +27°C° 0 mm 5 mps 734 mmHg 52%
16:00 +26°C° 0 mm 4 mps 734 mmHg 53%
17:00 +26°C° 0 mm 4 mps 733 mmHg 55%
18:00 +23°C° 0 mm 4 mps 733 mmHg 59%
19:00 +22°C° 0 mm 4 mps 733 mmHg 64%
20:00 +20°C° 0 mm 4 mps 733 mmHg 68%
21:00 +19°C° 0 mm 4 mps 734 mmHg 67%
22:00 +19°C° 0 mm 4 mps 734 mmHg 65%
23:00 +18°C° 0 mm 4 mps 734 mmHg 63%

17 August, Monday

Time Temperature Precipitation Wind Pressure Humidity
00:00 +18°C° 0 mm 4 mps 734 mmHg 59%
01:00 +17°C° 0 mm 4 mps 733 mmHg 55%
02:00 +17°C° 0 mm 4 mps 733 mmHg 51%
03:00 +17°C° 0 mm 4 mps 733 mmHg 53%
04:00 +15°C° 0 mm 4 mps 733 mmHg 55%
05:00 +16°C° 0 mm 3 mps 733 mmHg 56%
06:00 +17°C° 0 mm 4 mps 733 mmHg 59%
07:00 +18°C° 0 mm 4 mps 733 mmHg 61%
08:00 +20°C° 0 mm 5 mps 733 mmHg 63%
09:00 +20°C° 0 mm 4 mps 733 mmHg 61%
10:00 +21°C° 0 mm 4 mps 733 mmHg 59%
11:00 +22°C° 0 mm 4 mps 733 mmHg 58%
12:00 +23°C° 0 mm 4 mps 733 mmHg 56%
13:00 +25°C° 0 mm 3 mps 733 mmHg 54%
14:00 +26°C° 0 mm 3 mps 732 mmHg 53%
15:00 +26°C° 0 mm 3 mps 732 mmHg 53%
16:00 +26°C° 0 mm 3 mps 732 mmHg 53%
17:00 +27°C° 0 mm 3 mps 731 mmHg 54%
18:00 +25°C° 0 mm 2 mps 731 mmHg 57%
19:00 +23°C° 0 mm 2 mps 731 mmHg 59%
20:00 +20°C° 0 mm 2 mps 731 mmHg 62%
21:00 +20°C° 0.2 mm 2 mps 731 mmHg 61%
22:00 +20°C° 0.2 mm 1 mps 731 mmHg 59%
23:00 +20°C° 0.2 mm 1 mps 730 mmHg 58%

18 August, Tuesday

Time Temperature Precipitation Wind Pressure Humidity
00:00 +19°C° 0.1 mm 1 mps 730 mmHg 58%
01:00 +19°C° 0.1 mm 1 mps 730 mmHg 58%
02:00 +19°C° 0.1 mm 1 mps 730 mmHg 58%
03:00 +18°C° 0 mm 1 mps 730 mmHg 60%
04:00 +18°C° 0 mm 1 mps 729 mmHg 61%
05:00 +18°C° 0 mm 1 mps 729 mmHg 63%
06:00 +19°C° 0 mm 1 mps 729 mmHg 64%
07:00 +21°C° 0 mm 1 mps 729 mmHg 65%
08:00 +22°C° 0 mm 1 mps 729 mmHg 66%
09:00 +24°C° 0.2 mm 2 mps 729 mmHg 64%
10:00 +25°C° 0.2 mm 2 mps 729 mmHg 62%
11:00 +27°C° 0.2 mm 2 mps 729 mmHg 60%
12:00 +28°C° 0.3 mm 2 mps 729 mmHg 57%
13:00 +29°C° 0.3 mm 2 mps 729 mmHg 54%
14:00 +29°C° 0.3 mm 3 mps 729 mmHg 52%
15:00 +29°C° 0.4 mm 2 mps 728 mmHg 53%
16:00 +29°C° 0.4 mm 1 mps 728 mmHg 54%
17:00 +29°C° 0.4 mm 1 mps 728 mmHg 55%
18:00 +27°C° 0.1 mm 1 mps 728 mmHg 59%
19:00 +26°C° 0.1 mm 1 mps 727 mmHg 64%
20:00 +24°C° 0.1 mm 1 mps 727 mmHg 68%
21:00 +23°C° 0.3 mm 1 mps 727 mmHg 70%
22:00 +23°C° 0.3 mm 1 mps 727 mmHg 72%
23:00 +22°C° 0.3 mm 1 mps 727 mmHg 74%

19 August, Wednesday

Time Temperature Precipitation Wind Pressure Humidity
00:00 +21°C° 0.1 mm 1 mps 727 mmHg 76%
01:00 +21°C° 0.1 mm 1 mps 727 mmHg 78%
02:00 +20°C° 0.1 mm 1 mps 726 mmHg 80%
03:00 +19°C° 0 mm 2 mps 726 mmHg 82%
04:00 +18°C° 0 mm 2 mps 726 mmHg 84%
05:00 +18°C° 0 mm 2 mps 726 mmHg 86%
06:00 +19°C° 0 mm 3 mps 726 mmHg 85%
07:00 +19°C° 0 mm 4 mps 726 mmHg 84%
08:00 +20°C° 0 mm 5 mps 726 mmHg 84%
09:00 +20°C° 0 mm 5 mps 727 mmHg 82%
10:00 +20°C° 0 mm 5 mps 727 mmHg 80%
11:00 +20°C° 0 mm 6 mps 727 mmHg 78%
12:00 +21°C° 0 mm 6 mps 727 mmHg 76%
13:00 +21°C° 0 mm 6 mps 727 mmHg 73%
14:00 +21°C° 0 mm 7 mps 727 mmHg 70%
15:00 +21°C° 0 mm 6 mps 727 mmHg 71%
16:00 +21°C° 0 mm 5 mps 727 mmHg 71%
17:00 +21°C° 0 mm 4 mps 728 mmHg 71%
18:00 +20°C° 0 mm 4 mps 727 mmHg 75%
19:00 +19°C° 0 mm 3 mps 727 mmHg 78%
20:00 +18°C° 0 mm 2 mps 727 mmHg 81%
21:00 +18°C° 0 mm 3 mps 727 mmHg 83%
22:00 +17°C° 0 mm 3 mps 727 mmHg 85%
23:00 +16°C° 0 mm 3 mps 728 mmHg 87%
Show more